Orbital Elements at Epoch 2459000.5 (2020-May-31.0) TDB
Reference: JPL 24 (heliocentric ecliptic J2000)
Element | Value | Uncertainty (1-sigma) | Units |
e | .1550976825056374 | 3.8447e-08 | |
a | 3.12841795784824 | 2.2281e-08 | au |
q | 2.643207582676959 | 1.2604e-07 | au |
i | 9.254419780366931 | 4.9706e-06 | deg |
node | 348.3580521677047 | 3.0003e-05 | deg |
peri | 141.8583062626562 | 3.5682e-05 | deg |
M | 330.5212197732511 | 1.8781e-05 | deg |
tp | 2459165.997939361281 (2020-Nov-12.49793936) | 0.00010607 | TDB |
period | 2021.089668968026 5.53 | 2.1592e-05 5.912e-08 | d yr |
n | .1781217357782136 | 1.9029e-09 | deg/d |
Q | 3.61362833301952 | 2.5737e-08 | au |
|
| | Orbit Determination Parameters
Additional Information
|